When you browse on this site, cookies collect data to enhance your experience and personalize the content and advertising you see.
Visit our Privacy Policy to learn more. By continuing to use the site, you agree to this use of cookies and data.
  • In Schweiz
  • Länderverzeichnis
  • Für 7 Tage
  • Wassertemperatur
  • Satellitenkarten
  • Wetterkarte
  • Widgets
  • user-avatar
    Anmelden

    Stündliche Wetter Dakka

    Heute, 16 Juli, Dienstag

    Zeit Temperatur Niederschläge Wind Luftdruck Luftfeuchtigkeit
    00:00 +30°C° 0 mm 3 m/S 750 mmHg 82%
    01:00 +30°C° 0 mm 3 m/S 749 mmHg 83%
    02:00 +30°C° 0 mm 3 m/S 749 mmHg 84%
    03:00 +30°C° 0 mm 3 m/S 749 mmHg 86%
    04:00 +30°C° 0.2 mm 3 m/S 749 mmHg 86%
    05:00 +30°C° 0.2 mm 3 m/S 749 mmHg 86%
    06:00 +30°C° 0 mm 2 m/S 750 mmHg 88%
    07:00 +31°C° 0.6 mm 3 m/S 750 mmHg 80%
    08:00 +34°C° 0.6 mm 3 m/S 750 mmHg 73%
    09:00 +35°C° 0.6 mm 3 m/S 750 mmHg 65%
    10:00 +36°C° 0.3 mm 3 m/S 750 mmHg 61%
    11:00 +37°C° 0.3 mm 3 m/S 750 mmHg 58%
    12:00 +38°C° 0 mm 3 m/S 750 mmHg 54%
    13:00 +38°C° 0.6 mm 3 m/S 750 mmHg 54%
    14:00 +38°C° 0.6 mm 2 m/S 749 mmHg 54%
    15:00 +38°C° 0.6 mm 2 m/S 748 mmHg 54%
    16:00 +37°C° 0.1 mm 2 m/S 748 mmHg 57%
    17:00 +37°C° 0.1 mm 3 m/S 747 mmHg 61%
    18:00 +36°C° 0.1 mm 3 m/S 747 mmHg 64%
    19:00 +35°C° 0 mm 3 m/S 748 mmHg 68%
    20:00 +34°C° 0 mm 3 m/S 748 mmHg 72%
    21:00 +33°C° 0 mm 4 m/S 749 mmHg 76%
    22:00 +33°C° 0.3 mm 4 m/S 749 mmHg 78%
    23:00 +31°C° 0.3 mm 3 m/S 749 mmHg 81%

    Morgen, 17 Juli, Mittwoch

    Zeit Temperatur Niederschläge Wind Luftdruck Luftfeuchtigkeit
    00:00 +31°C° 0.3 mm 3 m/S 750 mmHg 83%
    01:00 +30°C° 0.3 mm 3 m/S 749 mmHg 83%
    02:00 +30°C° 0.3 mm 3 m/S 749 mmHg 84%
    03:00 +30°C° 0.3 mm 2 m/S 749 mmHg 84%
    04:00 +30°C° 0 mm 2 m/S 749 mmHg 84%
    05:00 +30°C° 0 mm 2 m/S 749 mmHg 85%
    06:00 +30°C° 0 mm 2 m/S 749 mmHg 85%
    07:00 +31°C° 0.1 mm 2 m/S 750 mmHg 78%
    08:00 +34°C° 0.1 mm 3 m/S 750 mmHg 71%
    09:00 +35°C° 0.1 mm 3 m/S 750 mmHg 64%
    10:00 +36°C° 0 mm 3 m/S 750 mmHg 61%
    11:00 +37°C° 0 mm 3 m/S 750 mmHg 57%
    12:00 +38°C° 0 mm 3 m/S 750 mmHg 54%
    13:00 +38°C° 0.1 mm 3 m/S 749 mmHg 54%
    14:00 +38°C° 0.1 mm 3 m/S 748 mmHg 53%
    15:00 +38°C° 0.1 mm 3 m/S 747 mmHg 52%
    16:00 +38°C° 0 mm 3 m/S 747 mmHg 55%
    17:00 +37°C° 0 mm 3 m/S 747 mmHg 57%
    18:00 +37°C° 0 mm 2 m/S 747 mmHg 60%
    19:00 +35°C° 0 mm 3 m/S 748 mmHg 64%
    20:00 +34°C° 0 mm 3 m/S 748 mmHg 68%
    21:00 +33°C° 0 mm 4 m/S 749 mmHg 73%
    22:00 +33°C° 0 mm 4 m/S 749 mmHg 75%
    23:00 +32°C° 0 mm 4 m/S 749 mmHg 77%

    übermorgen, 18 Juli, Donnerstag

    Zeit Temperatur Niederschläge Wind Luftdruck Luftfeuchtigkeit
    00:00 +32°C° 0 mm 4 m/S 749 mmHg 79%
    01:00 +31°C° 0 mm 3 m/S 749 mmHg 80%
    02:00 +30°C° 0 mm 3 m/S 749 mmHg 81%
    03:00 +30°C° 0 mm 2 m/S 748 mmHg 82%
    04:00 +30°C° 0 mm 2 m/S 749 mmHg 83%
    05:00 +30°C° 0 mm 2 m/S 749 mmHg 83%
    06:00 +30°C° 0 mm 2 m/S 749 mmHg 83%
    07:00 +31°C° 0 mm 2 m/S 750 mmHg 78%
    08:00 +34°C° 0 mm 2 m/S 750 mmHg 72%
    09:00 +35°C° 0 mm 3 m/S 750 mmHg 66%
    10:00 +36°C° 0 mm 3 m/S 750 mmHg 61%
    11:00 +37°C° 0 mm 3 m/S 749 mmHg 57%
    12:00 +38°C° 0 mm 3 m/S 749 mmHg 52%
    13:00 +38°C° 0 mm 3 m/S 748 mmHg 52%
    14:00 +38°C° 0 mm 3 m/S 748 mmHg 52%
    15:00 +38°C° 0 mm 3 m/S 747 mmHg 51%
    16:00 +38°C° 0 mm 3 m/S 747 mmHg 54%
    17:00 +37°C° 0 mm 4 m/S 747 mmHg 57%
    18:00 +36°C° 0 mm 4 m/S 747 mmHg 61%
    19:00 +35°C° 0 mm 4 m/S 747 mmHg 64%
    20:00 +34°C° 0 mm 4 m/S 748 mmHg 68%
    21:00 +33°C° 0 mm 5 m/S 748 mmHg 71%
    22:00 +33°C° 0 mm 4 m/S 749 mmHg 73%
    23:00 +32°C° 0 mm 4 m/S 749 mmHg 75%

    19 Juli, Freitag

    Zeit Temperatur Niederschläge Wind Luftdruck Luftfeuchtigkeit
    00:00 +32°C° 0 mm 4 m/S 749 mmHg 77%
    01:00 +32°C° 0 mm 4 m/S 749 mmHg 79%
    02:00 +30°C° 0 mm 3 m/S 749 mmHg 81%
    03:00 +30°C° 0 mm 3 m/S 749 mmHg 82%
    04:00 +30°C° 0 mm 3 m/S 749 mmHg 83%
    05:00 +30°C° 0 mm 3 m/S 749 mmHg 84%
    06:00 +30°C° 0 mm 2 m/S 750 mmHg 85%
    07:00 +31°C° 0 mm 3 m/S 750 mmHg 78%
    08:00 +33°C° 0 mm 3 m/S 751 mmHg 72%
    09:00 +35°C° 0 mm 4 m/S 751 mmHg 66%
    10:00 +36°C° 0 mm 4 m/S 751 mmHg 61%
    11:00 +37°C° 0 mm 4 m/S 750 mmHg 56%
    12:00 +38°C° 0 mm 3 m/S 750 mmHg 51%
    13:00 +38°C° 0 mm 3 m/S 749 mmHg 50%
    14:00 +38°C° 0 mm 3 m/S 749 mmHg 49%
    15:00 +40°C° 0 mm 4 m/S 748 mmHg 49%
    16:00 +38°C° 0 mm 4 m/S 748 mmHg 52%
    17:00 +37°C° 0 mm 4 m/S 748 mmHg 56%
    18:00 +36°C° 0 mm 4 m/S 748 mmHg 59%
    19:00 +35°C° 0 mm 4 m/S 748 mmHg 63%
    20:00 +34°C° 0 mm 4 m/S 749 mmHg 67%
    21:00 +33°C° 0 mm 5 m/S 749 mmHg 71%
    22:00 +33°C° 0 mm 4 m/S 750 mmHg 73%
    23:00 +32°C° 0 mm 4 m/S 750 mmHg 75%

    20 Juli, Samstag

    Zeit Temperatur Niederschläge Wind Luftdruck Luftfeuchtigkeit
    00:00 +32°C° 0 mm 4 m/S 750 mmHg 77%
    01:00 +32°C° 0 mm 4 m/S 750 mmHg 79%
    02:00 +30°C° 0 mm 4 m/S 750 mmHg 80%
    03:00 +30°C° 0 mm 4 m/S 750 mmHg 82%
    04:00 +30°C° 0 mm 3 m/S 750 mmHg 83%
    05:00 +30°C° 0 mm 3 m/S 750 mmHg 84%
    06:00 +30°C° 0 mm 3 m/S 750 mmHg 85%
    07:00 +31°C° 0 mm 3 m/S 751 mmHg 78%
    08:00 +34°C° 0 mm 3 m/S 751 mmHg 71%
    09:00 +35°C° 0 mm 4 m/S 751 mmHg 65%
    10:00 +36°C° 0 mm 4 m/S 751 mmHg 60%
    11:00 +37°C° 0 mm 3 m/S 751 mmHg 56%
    12:00 +38°C° 0 mm 3 m/S 750 mmHg 52%
    13:00 +38°C° 0 mm 3 m/S 750 mmHg 51%
    14:00 +38°C° 0 mm 3 m/S 749 mmHg 50%
    15:00 +39°C° 0 mm 3 m/S 748 mmHg 49%
    16:00 +38°C° 0 mm 3 m/S 748 mmHg 52%
    17:00 +37°C° 0 mm 3 m/S 748 mmHg 56%
    18:00 +37°C° 0 mm 3 m/S 748 mmHg 59%
    19:00 +36°C° 0 mm 3 m/S 748 mmHg 62%
    20:00 +35°C° 0 mm 4 m/S 749 mmHg 65%
    21:00 +34°C° 0 mm 4 m/S 749 mmHg 68%
    22:00 +33°C° 0 mm 5 m/S 749 mmHg 70%
    23:00 +33°C° 0 mm 5 m/S 749 mmHg 72%

    21 Juli, Sonntag

    Zeit Temperatur Niederschläge Wind Luftdruck Luftfeuchtigkeit
    00:00 +32°C° 0 mm 5 m/S 750 mmHg 75%
    01:00 +32°C° 0 mm 5 m/S 749 mmHg 76%
    02:00 +30°C° 0 mm 5 m/S 749 mmHg 78%
    03:00 +30°C° 0 mm 4 m/S 749 mmHg 80%
    04:00 +30°C° 0 mm 4 m/S 749 mmHg 81%
    05:00 +30°C° 0 mm 4 m/S 749 mmHg 83%
    06:00 +30°C° 0 mm 4 m/S 749 mmHg 84%
    07:00 +32°C° 0 mm 4 m/S 750 mmHg 79%
    08:00 +33°C° 0 mm 4 m/S 750 mmHg 74%
    09:00 +34°C° 0 mm 5 m/S 750 mmHg 69%
    10:00 +35°C° 0 mm 5 m/S 750 mmHg 63%
    11:00 +37°C° 0 mm 5 m/S 749 mmHg 58%
    12:00 +39°C° 0 mm 5 m/S 749 mmHg 52%
    13:00 +39°C° 0 mm 5 m/S 748 mmHg 51%
    14:00 +39°C° 0 mm 5 m/S 748 mmHg 50%
    15:00 +40°C° 0 mm 4 m/S 747 mmHg 49%
    16:00 +38°C° 0.1 mm 4 m/S 747 mmHg 53%
    17:00 +37°C° 0.1 mm 4 m/S 747 mmHg 57%
    18:00 +36°C° 0.1 mm 4 m/S 747 mmHg 61%
    19:00 +35°C° 0.1 mm 4 m/S 747 mmHg 64%
    20:00 +34°C° 0.1 mm 5 m/S 748 mmHg 68%
    21:00 +33°C° 0.1 mm 5 m/S 748 mmHg 71%
    22:00 +32°C° 0.1 mm 5 m/S 749 mmHg 74%
    23:00 +32°C° 0.1 mm 5 m/S 749 mmHg 76%
    Mehr zeigen